|
NORAD ID: 22308 Int'l Code: 1993-001B
Perigee: 970.6 km
Apogee: 1,003.1 km
Inclination: 82.9 °
Period: 104.7 minutes
Semi major axis: 7357 km
Launch date: January 12, 1993
Source: Commonwealth of Independent States (former USSR) (CIS)
Note: This is a ROCKET BODY
Two Line Element Set (TLE):
1 22308U 93001B 13168.52907421 -.00000187 00000-0 -20988-3 0 4439
2 22308 082.9338 172.6187 0022105 323.1061 193.3591 13.75542459 25483
Source:
NASA's NSSDC Master Catalog entry for SL-8 R/B
|